Location: Julian California
(33.0790°N, 116.6010°W)
Time: 11:39:46
(UTC-07:00)

Daily predictions for brighter satellites

Satellite Brightness Start Highest point End
(mag) Time Altitude Azimuth Time Altitude Azimuth Time Altitude Azimuth
CORIOLIS 4.2 18:27:28 10° SSE 18:32:49 86° ENE 18:38:15 10° NNW
Meteor 1-16 Rocket 4.2 18:27:36 10° S 18:32:54 87° W 18:38:14 10° N
SL-8 Rocket 4.1 18:29:29 10° S 18:35:39 86° W 18:41:53 10° N
Cosmos 1624 Rocket 4.1 18:31:07 10° N 18:36:15 58° ENE 18:41:24 10° SSE
Atlas Centaur 2 2.1 18:33:20 10° WSW 18:37:49 65° S 18:43:34 10° E
ISS -3.8 18:35:21 10° NW 18:38:37 89° NE 18:41:52 10° SE
MTI 4.2 18:35:43 10° N 18:38:53 66° WNW 18:42:02 10° SSW
Cosmos 1371 Rocket 4.0 18:33:34 10° NNW 18:38:57 77° ENE 18:44:16 10° SSE
COSMO-SKYMED 1 2.5 18:36:51 10° NNE 18:41:10 66° E 18:45:27 10° S
Thor Agena Rocket 4.4 18:39:34 10° NE 18:43:47 26° E 18:47:58 10° SSE
Cosmos 1703 4.0 18:40:47 10° NNE 18:44:18 31° E 18:47:47 10° SE
ASTRO E2 2.9 18:41:28 10° WSW 18:45:24 63° S 18:49:06 11° E
ERS-2 2.6 18:42:06 10° S 18:45:44 67° WSW 18:49:25 10° NNW
NOSS 3 (A) 4.4 18:43:38 10° SSW 18:46:22 83° WNW 18:49:13 10° NNE
Cosmos 1408 Rocket 4.0 18:43:39 10° NNW 18:48:04 69° W 18:52:29 10° S
Milstar 3 Cent rocket 4.3 18:36:46 10° W 18:48:12 43° SSW 18:54:13 10° SE
CZ-4 R/B 2.4 18:46:51 10° S 18:50:59 54° W 18:55:05 10° NNW
APEX 4.2 18:48:13 10° SSE 18:51:00 21° ESE 18:53:00 13° ENE
MOS 1 4.2 18:51:41 10° SSE 18:57:19 78° ENE 19:02:59 10° N
Cosmos 1400 Rocket 2.8 18:53:27 10° N 18:57:26 59° E 19:01:19 10° SSE
Cosmos 2218 Rocket 4.4 18:51:45 10° SSW 18:57:51 68° W 19:03:58 10° N
Cosmos 1908 3.6 18:55:19 10° SSE 18:58:59 40° E 19:02:40 10° NNE
SL-8 R/B 4.5 18:54:30 10° WSW 18:59:10 49° NW 19:03:51 10° NE
YAOGAN 1 3.1 18:57:00 10° S 19:01:16 63° W 19:05:33 10° NNW
Cosmos 158 Rocket 4.2 18:57:55 10° S 19:02:34 42° ESE 19:07:21 10° NNE
Cosmos 1726 3.4 19:00:47 10° SE 19:03:27 19° E 19:04:03 18° ENE
SL-16 R/B 2.7 19:01:41 10° NNW 19:07:18 65° WSW 19:12:52 10° S
BREEZE-M DEB (TANK) 2.0 19:05:39 10° NNW 19:07:27 29° NE 19:07:46 27° ENE
H-2A R/B 4.0 19:06:24 19° E 19:07:30 21° ENE 19:10:29 10° NNE
GENESIS II 4.4 19:03:41 10° SSW 19:07:38 75° WNW 19:11:36 10° NNE
Tiangong 1 1.0 19:06:49 10° WNW 19:09:28 59° SSW 19:11:04 20° SE
Cosmos 1727 Rocket 4.0 19:07:20 10° N 19:13:43 86° E 19:20:02 10° S
SPOT 3 Rocket 3.6 19:09:01 10° SSE 19:14:11 88° WSW 19:19:25 10° NNW
BREEZE-M R/B 3.7 19:12:35 10° S 19:13:55 18° SE 19:13:55 18° SE
GP-B 3.9 19:11:13 10° N 19:15:32 53° W 19:19:50 10° SSW
ATLAS 3B CENTAUR R/B 4.2 19:11:52 10° WSW 19:15:50 24° S 19:23:30 10° SE
GRACE-2 3.7 19:13:53 10° S 19:16:26 77° W 19:19:00 10° N
Cosmos 1269 Rocket 4.3 19:13:39 10° S 19:18:34 43° ESE 19:23:32 10° NNE
GRACE-1 4.0 19:16:12 10° S 19:18:44 65° W 19:21:18 10° N
Cosmos 2056 Rocket 4.5 19:18:46 10° NNW 19:23:51 50° WSW 19:28:51 10° S
ALOS 2.1 19:19:28 10° SSE 19:24:07 82° ENE 19:28:47 10° N
CZ-4C R/B 2.1 19:22:53 10° S 19:27:44 53° ESE 19:31:34 18° NE
Abrixas 4.0 19:26:02 10° SSW 19:26:51 18° S 19:26:51 18° S
Cosmos 468 4.5 19:23:48 10° SSW 19:28:59 85° WNW 19:34:14 10° NNE
Cosmos 2098 Rocket 3.1 19:25:17 10° SSE 19:29:03 52° E 19:33:53 10° NNE
Cosmos 2151 3.4 19:25:15 10° NNW 19:29:29 63° W 19:33:39 10° S
OAO 1 Rocket 4.4 19:30:05 10° WSW 19:35:23 88° N 19:37:36 36° ENE
NOAA 12 4.3 19:30:09 10° S 19:35:24 73° WSW 19:40:43 10° NNW
Cosmos 1626 4.1 19:34:06 10° NNW 19:37:25 31° W 19:40:43 10° SSW
Delta 2 Rocket 3.1 19:36:01 10° W 19:39:34 56° N 19:39:55 53° NNE
Cosmos 1315 Rocket 2.8 19:35:40 10° N 19:39:44 83° W 19:43:50 10° S
Cosmos 1452 Rocket 3.4 19:36:31 10° NNW 19:41:47 87° ENE 19:47:02 10° SSE
SL-24 R/B - RUBIN 2 3.5 19:39:10 10° NNW 19:43:51 65° ENE 19:44:45 51° ESE
FALCON 9 R/B 3.2 19:41:43 10° WSW 19:43:54 20° SSW 19:45:53 15° SSE
Cosmos 2221 3.0 19:40:56 10° SSW 19:45:09 60° W 19:49:27 10° N
USA 267 3.2 19:40:29 16° NE 19:45:57 90° SSE 19:52:29 10° SW
COSMOS 2428 3.0 19:41:32 10° N 19:46:55 42° ENE 19:47:22 41° ENE
CZ-3 Stage 3 2.9 19:48:13 10° WSW 19:48:38 15° WSW 19:48:38 15° WSW
Cosmos 2360 Rocket 2.3 19:44:25 10° NNW 19:50:04 74° WSW 19:55:41 10° SSE
Cosmos 2333 Rocket 3.7 19:45:46 10° N 19:48:28 20° NNE 19:48:28 20° NNE
Cosmos 2219 3.1 19:46:49 10° SSW 19:52:34 87° ESE 19:58:20 10° NNE
FengYun 1-2 T 4.1 19:49:47 10° SSE 19:55:18 85° ENE 20:00:48 10° NNW
DELTA 2 R/B (1) 3.8 19:51:51 10° WNW 19:57:18 53° NNE 19:58:14 47° NE
RESURS DK-1 2.7 19:53:41 10° NNW 19:57:45 63° WSW 19:59:02 40° S
SJ-6B 4.3 20:01:41 26° N 20:01:41 26° N 20:03:22 10° N
Cosmos 921 Rocket 3.4 19:55:24 10° NNW 19:59:47 62° WSW 20:02:30 21° S
Cosmos 44 3.7 19:57:52 10° SW 20:02:08 51° WNW 20:03:58 30° N
MOS 1-B Rocket 4.0 20:12:52 53° NE 20:12:52 53° NE 20:17:40 10° N
Cosmos 44 Rocket 4.5 20:13:12 10° SW 20:17:36 39° WNW 20:19:34 26° N
Cosmos 2322 4.4 20:12:42 10° NNW 20:18:15 52° WSW 20:22:17 18° S
Atlas Centaur 2 2.6 20:21:35 10° W 20:26:34 55° SSW 20:26:34 55° SSW
Cosmos 2219 Rocket 3.4 20:34:27 10° NNW 20:37:18 31° N 20:37:18 31° N
CZ-4C R/B 4.4 21:12:53 10° W 21:16:39 19° NW 21:16:52 19° NW
